Total_Precipitation_Accumulation
0.82 0.80 0.82 0.80 0.74 0.58 0.50 0.41 0.38 0.43 0.40 0.33 0.26 0.24 0.23 0.22 0.23 0.26 0.29 0.35 0.40 0.53 0.80 1.19 1.17 0.97 1.09
1.04 0.95 0.80 0.62 0.44 0.27 0.17 0.11 0.07 0.14 0.11 0.08 0.09 0.10 0.08 0.08 0.12 0.14 0.16 0.21 0.30 0.43 0.51 0.60 0.72 0.64 0.62
0.28 0.22 0.20 0.18 0.13 0.07 0.04 0.02 0.02 0.05 0.05 0.04 0.04 0.03 0.04 0.05 0.09 0.10 0.13 0.12 0.11 0.15 0.26 0.27 0.29 0.43 0.44
0.21 0.21 0.17 0.09 0.05 0.02 0.02 0.01 0.01 0.00 0.02 0.01 0.02 0.04 0.05 0.05 0.03 0.02 0.01 0.02 0.03 0.07 0.18 0.27 0.24 0.24 0.25
0.32 0.25 0.13 0.04 0.01 0.01 0.02 0.02 0.02 0.01 0.01 0.02 0.03 0.02 0.00 0.00 0.00 0.01 0.02 0.07 0.11 0.14 0.18 0.24 0.30 0.35 0.29
0.35 0.14 0.02 0.00 0.01 0.05 0.16 0.14 0.11 0.00 0.03 0.02 0.00 0.00 0.00 0.00 0.02 0.03 0.04 0.05 0.06 0.10 0.14 0.16 0.18 0.24 0.30
0.04 0.01 0.02 0.05 0.23 0.24 0.14 0.16 0.11 0.01 0.05 0.07 0.01 0.01 0.01 0.01 0.01 0.01 0.03 0.04 0.07 0.10 0.13 0.15 0.15 0.15 0.16
0.01 0.03 0.08 0.09 0.10 0.23 0.22 0.13 0.05 0.01 0.03 0.14 0.02 0.01 0.00 0.00 0.01 0.01 0.03 0.12 0.18 0.19 0.21 0.21 0.18 0.17 0.17
0.07 0.05 0.02 0.01 0.01 0.13 0.20 0.20 0.13 0.01 0.01 0.09 0.04 0.02 0.01 0.00 0.00 0.04 0.06 0.07 0.05 0.06 0.07 0.09 0.11 0.13 0.15
0.01 0.00 0.00 0.00 0.01 0.04 0.19 0.56 0.28 0.22 0.01 0.29 0.16 0.12 0.39 0.03 0.01 0.02 0.01 0.01 0.05 0.05 0.05 0.07 0.09 0.12 0.16
0.00 0.00 0.00 0.01 0.01 0.01 0.07 0.48 0.77 0.49 0.02 0.61 0.72 0.13 0.38 0.14 0.01 0.01 0.01 0.08 0.17 0.16 0.18 0.23 0.25 0.30 0.40
0.01 0.01 0.02 0.02 0.01 0.01 0.02 0.06 0.21 0.51 0.18 0.37 1.14 0.39 0.65 0.37 0.05 0.01 0.01 0.13 0.38 0.50 0.51 0.52 0.53 0.47 0.47
0.05 0.03 0.03 0.03 0.03 0.03 0.02 0.01 0.03 0.04 0.09 0.18 0.56 0.46 0.63 0.56 0.27 0.06 0.17 0.17 0.44 0.69 0.52 0.44 0.48 0.53 0.49
0.09 0.04 0.02 0.03 0.05 0.07 0.16 0.07 0.18 0.05 0.05 0.09 0.21 0.44 0.55 0.23 0.38 0.30 0.20 0.45 0.39 0.46 0.56 0.47 0.47 0.60 0.57
0.11 0.11 0.06 0.05 0.05 0.05 0.19 0.27 0.35 0.19 0.11 0.06 0.06 0.09 0.19 0.29 0.45 0.22 0.25 0.31 0.51 0.70 0.69 0.61 0.62 0.92 0.80
0.10 0.12 0.18 0.16 0.17 0.11 0.18 0.30 0.32 0.19 0.19 0.14 0.11 0.14 0.11 0.12 0.29 0.51 0.51 0.46 0.60 0.68 0.70 0.90 0.81 0.89 0.70
0.17 0.20 0.27 0.21 0.16 0.17 0.17 0.20 0.18 0.15 0.16 0.19 0.23 0.46 0.58 0.23 0.14 0.48 1.01 0.85 0.63 0.58 0.61 0.69 0.91 1.00 0.71